Location: Saint-Palais-sur-Mer
(45.6429°N, 1.0859°W)
Time: 23:35:37
(UTC+01:00)

Tiros 1 despin weight - Pass Details

Date: 17 February 2026
Orbit: 556 x 593 km, 48.2° (Epoch: 13 March)

Event Time Altitude Azimuth Distance (km) Brightness Sun altitude
Rises 21:24:49 0° 289° (WNW) 2,735 ? -30.3°
Reaches altitude 10° 21:27:06 10° 285° (WNW) 1,840 ? -30.7°
Enters shadow 21:29:06 26° 274° (W) 1,107 ? -31.0°
Maximum altitude 21:31:12 54° 208° (SSW) 681 - -31.4°
Drops below altitude 10° 21:35:18 10° 131° (SE) 1,845 - -32.1°
Sets 21:37:36 0° 127° (SE) 2,744 - -32.4°
